AMC-3

Last updated on Wed Sep 17 2025 00:02:45 GMT+0000 (Coordinated Universal Time)

1 24936U 97050A 25259.42669132 -.00000278 00000+0 00000+0 0 9997 2 24936 7.4722 67.1732 0002795 117.1277 252.9379 1.00270586 49697
UTC large
Height (km)
Speed (km/s)
/
Latitude / Longitude
Inclination (degrees)
Orbital Period (minutes)
Azimuth
Elevation
Range (km)
Doppler Factor

Next 0 passes for location: London (51.5072 / 0.1276)

Sorry there are no passes over London.